[[[{"header":{"parameterUnit":"kt","parameterCategory":2,"dx":1,"dy":1,"la1":30.253999710083008,"la2":30.299108505249023,"lo1":-89.0895004272461,"lo2":-89.04439544677734,"nx":28,"ny":28,"refTime":"2022-09-21T21:00:00:Z","depth":0,"parameterNumber":1,"parameterNumberName":"U-component_of_WINDS"},"data":[3.5416,3.5443,3.5407,3.5422,3.5394,3.5397,3.5388,3.5372,3.5352,3.5354,3.5349,3.532,3.5288,3.5276,3.527,3.5258,3.5255,3.5287,3.5266,3.5154,3.5136,3.5119,3.5107,3.5289,3.5289,3.5383,3.5384,3.5384,3.5325,3.5296,3.5296,3.5272,3.527,3.5216,3.5194,3.5196,3.5203,3.518,3.5175,3.5176,3.5174,3.5132,3.5125,3.5137,3.5111,3.5136,3.5132,3.5126,3.5008,3.4995,3.5156,3.5156,3.5156,3.5156,3.5156,3.5156,3.515,3.5169,3.5134,3.5133,3.5113,3.5098,3.511,3.5073,3.5074,3.5062,3.5025,3.5034,3.5006,3.4985,3.4971,3.4977,3.4944,3.4962,3.4964,3.4968,3.4973,3.4826,3.4976,3.4976,3.4975,3.4975,3.4974,0,3.5009,3.4977,3.4977,3.4964,3.4963,3.4952,3.4937,3.4945,3.4874,3.4879,3.4883,3.488,3.4877,3.4877,3.4867,3.4849,3.4795,3.4791,3.4801,3.4813,3.4822,3.4809,3.4608,3.4786,3.4784,3.4783,3.4782,3.4781,3.4821,3.4853,3.4802,3.4806,3.4789,3.4799,3.4798,3.4733,3.4735,3.4709,3.4732,3.4733,3.473,3.4748,3.4708,3.4707,3.4681,3.475,3.4681,3.469,3.4672,3.4667,3.4666,3.4763,3.4765,3.4767,3.4769,0,3.4717,3.4663,3.4701,3.4651,3.4639,3.4675,3.4631,3.4651,3.4616,3.4638,3.464,3.4585,3.4593,3.4543,3.4546,3.4519,3.4573,3.4552,3.4577,3.4567,3.4619,3.4611,3.4809,3.4828,3.4648,3.465,3.4651,0,3.4533,3.4579,3.4494,3.452,3.4566,3.45,3.4548,3.4522,3.4499,3.4517,3.4449,3.4467,3.4402,3.4413,3.4375,3.4411,3.4415,3.4394,3.4382,3.4396,3.4397,3.4393,3.4381,3.4365,3.4364,3.4364,3.4363,0,3.437,3.4384,3.4425,3.4419,3.4372,3.4394,3.4376,3.4352,3.4354,3.4349,3.4348,3.4351,3.4351,3.4353,3.4302,3.4255,3.4349,3.4275,3.4327,3.4328,3.4347,3.4345,3.4537,3.4362,3.4361,3.4361,3.4361,0,3.4212,3.4206,3.4279,3.4235,3.4242,3.4273,3.4265,3.4281,3.4261,3.4237,3.4234,3.4183,3.4217,3.4145,3.4189,3.4141,3.4145,3.413,3.4133,3.4128,3.4047,3.4152,3.4347,3.4361,3.4128,3.4126,3.4124,0,3.4035,3.4096,3.4038,3.4111,3.4131,3.4047,3.4081,3.4067,3.4038,3.4051,3.4021,3.404,3.3977,3.3976,3.4005,3.3975,3.4038,3.3966,3.3982,3.3983,3.3979,3.416,3.4197,3.431,3.4099,3.4102,3.4104,0,3.3891,3.3835,3.3853,3.384,3.3811,3.3831,3.3872,3.3874,3.3885,3.3882,3.391,3.3943,3.3892,3.3894,3.3855,3.3888,3.3993,3.3832,3.383,3.3855,3.4086,3.4119,3.4139,3.3959,3.3962,3.3965,3.4084,0,3.3646,3.3674,3.3722,3.3706,3.3714,3.3761,3.3705,3.3721,3.3678,3.3647,3.3696,3.3678,3.3686,3.37,3.3664,3.3758,3.3733,3.3683,3.3606,3.3728,3.3765,3.3781,3.3553,3.3551,3.3549,3.3547,0,0,3.3486,3.3524,3.3463,3.35,3.3501,3.3416,3.347,3.3464,3.3456,3.3459,3.3416,3.3457,3.3447,3.3511,3.3545,3.3554,3.3563,3.3525,3.3672,3.3686,3.3699,3.374,3.3758,3.3543,3.3543,3.3542,3.3541,0,3.3383,3.3371,3.3426,3.3415,3.3397,3.3362,3.3376,3.3345,3.3328,3.3379,3.3309,3.3334,3.3376,3.3367,3.337,3.3517,3.3463,3.3526,3.3616,3.3653,3.367,3.3685,3.3729,3.3746,3.3536,3.3536,3.3537,0,3.3225,3.32,3.3222,3.3228,3.3217,3.3245,3.3148,3.3185,3.3205,3.3116,3.3167,3.3152,3.3143,3.3215,3.3247,3.3209,3.3373,3.3318,3.333,3.3331,3.3363,3.3384,3.3402,3.3159,3.3158,3.3157,0,0,3.3143,3.3171,3.3126,3.3202,3.3199,3.3149,3.3161,3.312,3.3111,3.3109,3.3087,3.3083,3.3103,3.312,3.3139,3.3229,3.3219,3.3273,3.3291,3.3305,3.3315,3.3351,3.3372,3.3153,3.3153,3.3152,0,0,3.3106,3.3055,3.3013,3.3094,3.3086,3.3049,3.3097,3.3046,3.3057,3.3046,3.2983,3.298,3.3048,3.3038,3.2985,3.311,3.3035,3.3047,3.3113,3.3135,3.3152,3.3151,3.2886,0,0,0,0,0,3.2971,3.306,3.3023,3.3028,3.3039,3.307,3.3071,3.3018,3.2962,3.3001,3.2974,3.2918,3.2994,3.2946,3.2955,3.3013,3.3097,3.3107,3.3116,3.3222,3.3245,3.3265,0,0,0,0,0,0,3.2973,3.298,3.302,3.2988,3.299,3.3066,3.296,3.2948,3.2957,3.2944,3.2925,3.2918,3.2876,3.2939,3.2947,3.3003,3.2884,3.3101,3.3109,3.3117,3.323,3.3249,3.3266,0,0,0,0,0,3.2974,3.2979,3.301,3.2986,3.2988,3.2938,3.2956,3.2945,3.2951,3.2912,3.2903,3.291,3.2879,3.2883,3.2944,3.3001,3.2878,3.2881,3.3106,3.3113,3.3119,3.3239,0,0,0,0,0,0,3.2975,3.297,3.3009,3.3008,3.2949,3.2933,3.2928,3.2943,3.2917,3.2909,3.2894,3.2885,3.2883,3.2884,3.2888,3.3002,3.2873,3.2876,3.2878,3.3111,3.3117,3.3121,0,0,0,0,0,0,3.2967,3.297,3.3008,3.2964,3.2957,3.2928,3.2924,3.2972,3.2919,3.2901,3.2892,3.289,3.288,3.2887,3.2888,3.2965,3.2869,3.2872,3.2874,3.2876,3.3116,3.312,0,0,0,0,0,0,3.2967,3.297,3.2964,3.2959,3.2952,3.2932,3.2969,3.2985,3.2876,3.2904,3.2866,3.2861,3.2884,3.2884,3.289,3.2965,3.2965,3.2869,3.2871,3.2873,3.2874,0,0,0,0,0,0,0,3.2968,3.2964,3.3017,3.2954,3.2948,3.2994,3.2994,3.2993,3.2875,3.2871,3.2867,3.2863,3.2851,3.2855,3.2858,3.2966,0,0,3.2869,3.287,0,0,0,0,0,0,0,0,3.2962,3.2964,3.3017,3.3017,3.3017,3.2994,3.2994,3.2994,3.2875,3.2871,3.2868,3.2864,3.2852,3.2855,3.2858,0,0,0,0,0,0,0,0,0,0,0,0,0,0,0,3.3017,3.3017,0,3.2994,3.2994,3.2994,3.2874,3.2871,3.2868,3.2866,3.2853,3.2855,3.2857,0,0,0,0,0,0,0,0,0,0,0,0,0,0,0,0,0,0,0,0,0,0,0,0,0,0,0,0,0,0,0,0,0,0,0,0,0,0,0,0,0,0,0,0,0,0,0,0,0,0,0,0,0,0,0,0,0,0,0,0,0,0,0,0,0,0,0,0,0]}],[{"header":{"parameterUnit":"kt","parameterCategory":2,"dx":1,"dy":1,"la1":30.253999710083008,"la2":30.299108505249023,"lo1":-89.0895004272461,"lo2":-89.04439544677734,"nx":28,"ny":28,"refTime":"2022-09-21T21:00:00:Z","depth":0,"parameterNumber":2,"parameterNumberName":"V-component_of_WINDS"},"data":[6.8075,6.82,6.8251,6.8415,6.8489,6.8608,6.8667,6.8747,6.8824,6.8968,6.9059,6.9122,6.9216,6.9334,6.9433,6.9458,6.9494,6.9498,6.9525,6.9467,6.9461,6.9456,6.9431,6.9506,6.9506,6.9578,6.9579,6.9579,6.8015,6.809,6.8194,6.833,6.8418,6.8444,6.8553,6.8623,6.8728,6.8825,6.892,6.9051,6.916,6.9256,6.9368,6.9422,6.9439,6.9448,6.9443,6.9456,6.9396,6.9368,6.9431,6.9431,6.9431,6.9431,6.9431,6.9431,6.7918,6.7992,6.8106,6.822,6.8303,6.8393,6.8471,6.855,6.8651,6.878,6.8823,6.8943,6.9048,6.9211,6.9278,6.9369,6.9369,6.9394,6.9399,6.9403,6.9399,6.9276,6.9391,6.9391,6.9392,6.9392,6.9392,0,6.7862,6.7901,6.8008,6.8128,6.8215,6.8314,6.8413,6.8463,6.8565,6.8644,6.8762,6.8839,6.8988,6.9102,6.9221,6.9287,6.932,6.9332,6.9348,6.9327,6.9289,6.9304,6.9198,6.9328,6.9328,6.9328,6.9328,6.9328,6.7762,6.7847,6.7995,6.8061,6.8131,6.8239,6.8313,6.8398,6.8472,6.8606,6.8666,6.8784,6.8883,6.9062,6.9151,6.9262,6.9279,6.9321,6.9296,6.927,6.9273,6.9265,6.9271,6.9324,6.9324,6.9325,6.9325,0,6.7699,6.779,6.7938,6.8079,6.8117,6.8198,6.8317,6.8395,6.8465,6.8581,6.8612,6.8722,6.8836,6.8921,6.907,6.9109,6.9232,6.9249,6.9193,6.9199,6.9242,6.9234,6.9379,6.94,6.9328,6.9328,6.9329,0,6.7647,6.7756,6.7884,6.7966,6.8086,6.8172,6.8288,6.8361,6.846,6.8552,6.8608,6.8693,6.8791,6.8886,6.8946,6.9063,6.9093,6.9128,6.9142,6.9122,6.9116,6.9159,6.9153,6.9179,6.9178,6.9177,6.9177,0,6.7534,6.7736,6.787,6.793,6.8094,6.8153,6.8224,6.8337,6.8411,6.8519,6.8566,6.8687,6.8751,6.884,6.8916,6.8895,6.9064,6.9051,6.91,6.9097,6.9132,6.9128,6.9237,6.9176,6.9176,6.9175,6.9175,0,6.7506,6.7621,6.7806,6.7941,6.799,6.808,6.8206,6.8304,6.8419,6.8464,6.8551,6.86,6.8716,6.8694,6.8852,6.8802,6.886,6.8907,6.8912,6.8926,6.8899,6.8942,6.9041,6.9052,6.8937,6.8935,6.8933,0,6.7347,6.7562,6.764,6.7814,6.7925,6.7981,6.8082,6.8186,6.8256,6.8356,6.8432,6.8547,6.8552,6.8599,6.8667,6.8749,6.8814,6.8743,6.8876,6.888,6.8838,6.8932,6.8923,6.901,6.891,6.8912,6.8914,0,6.7237,6.7443,6.747,6.754,6.7698,6.7794,6.7911,6.8047,6.8109,6.8224,6.8319,6.8488,6.8495,6.8576,6.8631,6.8696,6.8772,6.8696,6.87,6.8701,6.8908,6.8898,6.8913,6.8792,6.8795,6.8798,6.8895,0,6.7158,6.7283,6.7362,6.7526,6.7615,6.7734,6.7834,6.7913,6.7956,6.803,6.8177,6.8291,6.8429,6.8473,6.8519,6.8644,6.8636,6.8645,6.863,6.8692,6.8726,6.8741,6.857,6.857,6.857,6.857,0,0,6.6979,6.7162,6.725,6.7372,6.7452,6.7514,6.763,6.7716,6.7889,6.794,6.7933,6.8187,6.8281,6.8449,6.8476,6.8536,6.8565,6.8543,6.8663,6.8673,6.8683,6.8717,6.8731,6.8571,6.8571,6.8571,6.8571,0,6.6972,6.7075,6.7194,6.7287,6.743,6.7505,6.7533,6.7685,6.7739,6.789,6.7936,6.8038,6.8245,6.8334,6.8406,6.8525,6.8553,6.856,6.8588,6.8661,6.8671,6.868,6.8715,6.8728,6.8571,6.8571,6.8571,0,6.6876,6.6991,6.7062,6.7256,6.7351,6.7468,6.7476,6.7603,6.7688,6.7752,6.7901,6.7978,6.811,6.826,6.8332,6.8327,6.8536,6.8493,6.8494,6.8504,6.858,6.8591,6.8601,6.8464,6.8463,6.8462,0,0,6.6855,6.6976,6.7129,6.7263,6.7319,6.7436,6.751,6.7564,6.7685,6.7733,6.7835,6.7948,6.8067,6.8144,6.8263,6.8417,6.8447,6.8475,6.848,6.8484,6.8495,6.8572,6.8583,6.8459,6.8459,6.8459,0,0,6.6846,6.7029,6.7055,6.7225,6.7339,6.7497,6.7573,6.7608,6.7727,6.7725,6.782,6.7855,6.7999,6.8075,6.8022,6.8258,6.8242,6.8257,6.8204,6.8212,6.8217,6.8195,6.8047,0,0,0,0,0,6.6893,6.7006,6.7027,6.7072,6.7322,6.7485,6.7517,6.7601,6.7585,6.7642,6.7731,6.7761,6.8064,6.802,6.8061,6.8118,6.8421,6.8428,6.8434,6.8403,6.841,6.8416,0,0,0,0,0,0,6.6911,6.6965,6.7025,6.7187,6.7244,6.7482,6.7473,6.7499,6.7581,6.7584,6.7743,6.7766,6.7839,6.8005,6.804,6.8093,6.8035,6.8423,6.8429,6.8434,6.8406,6.8411,6.8416,0,0,0,0,0,6.6926,6.697,6.735,6.7186,6.7236,6.7373,6.747,6.7491,6.7556,6.7698,6.7723,6.7612,6.7839,6.7874,6.8027,6.8075,6.8011,6.8024,6.8427,6.8432,6.8436,6.8408,0,0,0,0,0,0,6.6937,6.6989,6.7362,6.738,6.7152,6.7361,6.7398,6.7484,6.7667,6.7692,6.7571,6.7572,6.784,6.7867,6.7894,6.8064,6.7992,6.8005,6.8013,6.8431,6.8434,6.8437,0,0,0,0,0,0,6.6966,6.7004,6.7371,6.7323,6.7336,6.735,6.7382,6.7526,6.7668,6.7529,6.7535,6.7569,6.7798,6.7862,6.7883,6.8105,6.7977,6.7989,6.7998,6.8004,6.8434,6.8436,0,0,0,0,0,0,6.6983,6.7016,6.7319,6.7329,6.7341,6.7548,6.7478,6.7729,6.7629,6.752,6.7622,6.7619,6.7793,6.7816,6.7876,6.8088,6.81,6.7977,6.7986,6.7992,6.7996,0,0,0,0,0,0,0,6.6998,6.6762,6.7255,6.7334,6.7344,6.7546,6.7551,6.7555,6.7628,6.7625,6.7623,6.762,6.7905,6.7919,6.7933,6.8074,0,0,6.7976,6.7982,0,0,0,0,0,0,0,0,6.675,6.6759,6.7256,6.7259,6.7263,6.7546,6.755,6.7554,6.7628,6.7626,6.7623,6.7621,6.7909,6.792,6.7931,0,0,0,0,0,0,0,0,0,0,0,0,0,0,0,6.7256,6.7259,0,6.7547,6.755,6.7554,6.7627,6.7626,6.7624,6.7622,6.7912,6.7921,6.793,0,0,0,0,0,0,0,0,0,0,0,0,0,0,0,0,0,0,0,0,0,0,0,0,0,0,0,0,0,0,0,0,0,0,0,0,0,0,0,0,0,0,0,0,0,0,0,0,0,0,0,0,0,0,0,0,0,0,0,0,0,0,0,0,0,0,0,0,0]}]]]